Time,TemperatureF,DewpointF,PressureIn,WindDirection,WindDirectionDegrees,WindSpeedMPH,WindSpeedGustMPH,Humidity,HourlyPrecipIn,Conditions,Clouds,dailyrainin,SoftwareType,DateUTC
2013-08-13 00:01:00,69.4,58.4,29.89,South,180,0.0,0.0,68,0.00,OVC,,0.00,WeatherDisplay:10.37,2013-08-13 04:01:00,
2013-08-13 00:06:00,69.4,58.4,30.06,South,180,0.0,0.0,68,0.00,OVC,,0.00,WeatherDisplay:10.37,2013-08-13 04:06:00,
2013-08-13 00:11:00,69.4,58.4,30.06,South,180,0.0,0.0,68,0.00,OVC,,0.00,WeatherDisplay:10.37,2013-08-13 04:11:00,
2013-08-13 00:16:00,69.3,58.2,30.06,South,170,5.8,5.8,68,0.00,OVC,,0.00,WeatherDisplay:10.37,2013-08-13 04:16:00,
2013-08-13 00:21:00,69.4,58.4,30.09,South,170,5.8,5.8,68,0.00,OVC,,0.00,WeatherDisplay:10.37,2013-08-13 04:21:00,
2013-08-13 00:26:00,69.4,58.4,30.09,South,170,5.8,5.8,68,0.00,OVC,,0.00,WeatherDisplay:10.37,2013-08-13 04:26:00,
2013-08-13 00:31:00,69.4,58.4,30.09,South,170,5.8,5.8,68,0.00,OVC,,0.00,WeatherDisplay:10.37,2013-08-13 04:31:00,
2013-08-13 00:36:00,69.3,58.2,30.12,South,170,5.8,5.8,68,0.00,OVC,,0.00,WeatherDisplay:10.37,2013-08-13 04:36:00,
2013-08-13 00:41:00,69.3,58.2,30.12,South,170,5.8,5.8,68,0.00,OVC,,0.00,WeatherDisplay:10.37,2013-08-13 04:41:00,
2013-08-13 00:46:00,69.3,58.2,30.12,South,170,5.8,5.8,68,0.00,OVC,,0.00,WeatherDisplay:10.37,2013-08-13 04:46:00,
2013-08-13 00:51:00,69.4,58.4,30.03,South,170,5.8,5.8,68,0.00,OVC,,0.00,WeatherDisplay:10.37,2013-08-13 04:51:00,
2013-08-13 00:56:00,69.4,58.4,30.03,South,170,5.8,5.8,68,0.00,OVC,,0.00,WeatherDisplay:10.37,2013-08-13 04:56:00,
2013-08-13 01:01:00,69.4,58.4,30.03,South,170,5.8,5.8,68,0.00,OVC,,0.00,WeatherDisplay:10.37,2013-08-13 05:01:00,
2013-08-13 01:06:00,69.3,58.2,30.03,South,170,5.8,5.8,68,0.00,OVC,,0.00,WeatherDisplay:10.37,2013-08-13 05:06:00,
2013-08-13 01:11:00,69.1,58.1,30.03,South,170,5.8,5.8,68,0.00,OVC,,0.00,WeatherDisplay:10.37,2013-08-13 05:11:00,
2013-08-13 01:16:00,69.1,60.1,30.03,South,170,5.8,5.8,73,0.00,BKN,,0.00,WeatherDisplay:10.37,2013-08-13 05:16:00,
2013-08-13 01:21:00,68.9,59.9,30.30,South,170,5.8,5.8,73,0.00,BKN,,0.00,WeatherDisplay:10.37,2013-08-13 05:21:00,
2013-08-13 01:26:00,68.7,59.7,30.30,South,170,5.8,5.8,73,0.00,BKN,,0.00,WeatherDisplay:10.37,2013-08-13 05:26:00,
2013-08-13 01:31:00,68.7,59.7,30.30,South,170,5.8,5.8,73,0.00,BKN,,0.00,WeatherDisplay:10.37,2013-08-13 05:31:00,
2013-08-13 01:36:00,68.7,59.7,30.27,South,170,5.8,5.8,73,0.00,BKN,,0.00,WeatherDisplay:10.37,2013-08-13 05:36:00,
2013-08-13 01:41:00,68.5,59.5,30.27,South,170,5.8,5.8,73,0.00,BKN,,0.00,WeatherDisplay:10.37,2013-08-13 05:41:00,
2013-08-13 01:46:00,68.5,59.5,30.27,South,170,5.8,5.8,73,0.00,BKN,,0.00,WeatherDisplay:10.37,2013-08-13 05:46:00,
2013-08-13 01:51:00,68.4,59.4,30.21,South,170,5.8,5.8,73,0.00,BKN,,0.00,WeatherDisplay:10.37,2013-08-13 05:51:00,
2013-08-13 01:56:00,68.2,59.2,30.21,South,170,5.8,5.8,73,0.00,BKN,,0.00,WeatherDisplay:10.37,2013-08-13 05:56:00,
2013-08-13 02:01:00,68.2,61.1,30.21,SSE,150,3.5,5.8,78,0.00,SCT,,0.00,WeatherDisplay:10.37,2013-08-13 06:01:00,
2013-08-13 02:06:00,68.2,61.1,30.18,SSE,150,3.5,3.5,78,0.00,SCT,,0.00,WeatherDisplay:10.37,2013-08-13 06:06:00,
2013-08-13 02:11:00,68.2,61.1,30.18,SSE,150,3.5,3.5,78,0.00,SCT,,0.00,WeatherDisplay:10.37,2013-08-13 06:11:00,
2013-08-13 02:16:00,68.2,61.1,30.18,SSE,150,3.5,3.5,78,0.00,SCT,,0.00,WeatherDisplay:10.37,2013-08-13 06:16:00,
2013-08-13 02:21:00,68.2,61.1,30.21,SSE,150,3.5,3.5,78,0.00,SCT,,0.00,WeatherDisplay:10.37,2013-08-13 06:21:00,
2013-08-13 02:26:00,68.2,61.1,30.21,SSE,150,3.5,3.5,78,0.00,SCT,,0.00,WeatherDisplay:10.37,2013-08-13 06:26:00,
2013-08-13 02:31:00,68.4,61.2,30.21,SSE,150,3.5,3.5,78,0.00,SCT,,0.00,WeatherDisplay:10.37,2013-08-13 06:31:00,
2013-08-13 02:36:00,68.2,61.1,30.09,SSE,150,3.5,3.5,78,0.00,SCT,,0.00,WeatherDisplay:10.37,2013-08-13 06:36:00,
2013-08-13 02:41:00,68.4,61.2,30.09,SSE,150,3.5,3.5,78,0.00,SCT,,0.00,WeatherDisplay:10.37,2013-08-13 06:41:00,
2013-08-13 02:46:00,68.4,61.2,30.09,SSE,150,3.5,3.5,78,0.00,SCT,,0.00,WeatherDisplay:10.37,2013-08-13 06:46:00,
2013-08-13 02:51:00,68.5,61.4,30.12,SSE,150,3.5,3.5,78,0.00,SCT,,0.00,WeatherDisplay:10.37,2013-08-13 06:51:00,
2013-08-13 02:57:00,68.4,61.2,30.12,SSE,150,3.5,3.5,78,0.00,SCT,,0.00,WeatherDisplay:10.37,2013-08-13 06:57:00,
2013-08-13 03:02:00,68.5,60.3,30.12,South,180,6.9,6.9,75,0.00,BKN,,0.00,WeatherDisplay:10.37,2013-08-13 07:02:00,
2013-08-13 03:07:00,68.5,60.3,30.06,South,180,6.9,6.9,75,0.00,BKN,,0.00,WeatherDisplay:10.37,2013-08-13 07:07:00,
2013-08-13 03:12:00,68.5,60.3,30.06,South,180,6.9,6.9,75,0.00,BKN,,0.00,WeatherDisplay:10.37,2013-08-13 07:12:00,
2013-08-13 03:17:00,68.5,60.3,30.06,South,180,6.9,6.9,75,0.00,BKN,,0.00,WeatherDisplay:10.37,2013-08-13 07:17:00,
2013-08-13 03:26:00,68.5,60.3,30.36,South,180,6.9,6.9,75,0.00,BKN,,0.00,WeatherDisplay:10.37,2013-08-13 07:26:00,
2013-08-13 03:31:00,68.5,60.3,30.36,South,180,6.9,6.9,75,0.00,BKN,,0.00,WeatherDisplay:10.37,2013-08-13 07:31:00,
2013-08-13 03:36:00,68.7,60.5,30.21,South,180,6.9,6.9,75,0.00,BKN,,0.00,WeatherDisplay:10.37,2013-08-13 07:36:00,
2013-08-13 03:41:00,68.7,60.5,30.21,South,180,6.9,6.9,75,0.00,BKN,,0.00,WeatherDisplay:10.37,2013-08-13 07:41:00,
2013-08-13 03:46:00,68.7,60.5,30.21,South,180,6.9,6.9,75,0.00,BKN,,0.00,WeatherDisplay:10.37,2013-08-13 07:46:00,
2013-08-13 03:51:00,68.9,60.6,30.12,South,180,6.9,6.9,75,0.00,BKN,,0.00,WeatherDisplay:10.37,2013-08-13 07:51:00,
2013-08-13 03:56:00,68.9,60.6,30.12,South,180,6.9,6.9,75,0.00,BKN,,0.00,WeatherDisplay:10.37,2013-08-13 07:56:00,
2013-08-13 04:01:00,68.9,62.8,30.12,South,170,6.9,6.9,81,0.00,OVC,,0.00,WeatherDisplay:10.37,2013-08-13 08:01:00,
2013-08-13 04:06:00,68.9,62.8,30.06,South,170,6.9,6.9,81,0.00,OVC,,0.00,WeatherDisplay:10.37,2013-08-13 08:06:00,
2013-08-13 04:11:00,68.9,62.8,30.06,South,170,6.9,6.9,81,0.00,OVC,,0.00,WeatherDisplay:10.37,2013-08-13 08:11:00,
2013-08-13 04:16:00,68.9,62.8,30.06,South,170,6.9,6.9,81,0.00,OVC,,0.00,WeatherDisplay:10.37,2013-08-13 08:16:00,
2013-08-13 04:21:00,68.9,62.8,30.09,South,170,6.9,6.9,81,0.00,OVC,,0.00,WeatherDisplay:10.37,2013-08-13 08:21:00,
2013-08-13 04:26:00,68.9,62.8,30.09,South,170,6.9,6.9,81,0.00,OVC,,0.00,WeatherDisplay:10.37,2013-08-13 08:26:00,
2013-08-13 04:31:00,68.9,62.8,30.09,South,170,6.9,6.9,81,0.00,OVC,,0.00,WeatherDisplay:10.37,2013-08-13 08:31:00,
2013-08-13 04:36:00,68.9,62.8,30.06,South,170,6.9,6.9,81,0.00,OVC,,0.00,WeatherDisplay:10.37,2013-08-13 08:36:00,
2013-08-13 04:41:00,68.9,62.8,30.06,South,170,6.9,6.9,81,0.00,OVC,,0.00,WeatherDisplay:10.37,2013-08-13 08:41:00,
2013-08-13 04:46:00,68.9,62.8,30.06,South,170,6.9,6.9,81,0.00,OVC,,0.00,WeatherDisplay:10.37,2013-08-13 08:46:00,
2013-08-13 04:51:00,68.7,62.7,30.09,South,170,6.9,6.9,81,0.00,OVC,,0.00,WeatherDisplay:10.37,2013-08-13 08:51:00,
2013-08-13 04:56:00,68.7,62.7,30.09,South,170,6.9,6.9,81,0.00,OVC,,0.00,WeatherDisplay:10.37,2013-08-13 08:56:00,
2013-08-13 05:01:00,68.7,62.7,30.09,SSE,160,9.2,9.2,81,0.00,OVC,,0.00,WeatherDisplay:10.37,2013-08-13 09:01:00,
2013-08-13 05:06:00,68.7,62.7,30.03,SSE,160,9.2,9.2,81,0.00,OVC,,0.00,WeatherDisplay:10.37,2013-08-13 09:06:00,
2013-08-13 05:11:00,68.7,62.7,30.03,SSE,160,9.2,9.2,81,0.00,OVC,,0.00,WeatherDisplay:10.37,2013-08-13 09:11:00,
2013-08-13 05:16:00,68.7,62.7,30.03,SSE,160,9.2,9.2,81,0.00,OVC,,0.00,WeatherDisplay:10.37,2013-08-13 09:16:00,
2013-08-13 05:21:00,68.5,62.5,30.06,SSE,160,9.2,9.2,81,0.00,OVC,,0.00,WeatherDisplay:10.37,2013-08-13 09:21:00,
2013-08-13 05:26:00,68.5,62.5,30.06,SSE,160,9.2,9.2,81,0.00,OVC,,0.00,WeatherDisplay:10.37,2013-08-13 09:26:00,
2013-08-13 05:31:00,68.5,62.5,30.06,SSE,160,9.2,9.2,81,0.00,OVC,,0.00,WeatherDisplay:10.37,2013-08-13 09:31:00,
2013-08-13 05:36:00,68.5,62.5,30.03,SSE,160,9.2,9.2,81,0.00,OVC,,0.00,WeatherDisplay:10.37,2013-08-13 09:36:00,
2013-08-13 05:41:00,68.5,62.5,30.03,SSE,160,9.2,9.2,81,0.00,OVC,,0.00,WeatherDisplay:10.37,2013-08-13 09:41:00,
2013-08-13 05:46:00,68.5,62.5,30.03,SSE,160,9.2,9.2,81,0.00,OVC,,0.00,WeatherDisplay:10.37,2013-08-13 09:46:00,
2013-08-13 05:51:00,68.5,62.5,30.06,SSE,160,9.2,9.2,81,0.00,OVC,,0.00,WeatherDisplay:10.37,2013-08-13 09:51:00,
2013-08-13 05:56:00,68.5,62.5,30.06,SSE,160,9.2,9.2,81,0.00,OVC,,0.00,WeatherDisplay:10.37,2013-08-13 09:56:00,
2013-08-13 06:01:00,68.5,61.4,30.06,South,170,8.1,9.2,78,0.00,OVC,,0.00,WeatherDisplay:10.37,2013-08-13 10:01:00,
2013-08-13 06:06:00,68.5,61.4,30.03,South,170,8.1,8.1,78,0.00,OVC,,0.00,WeatherDisplay:10.37,2013-08-13 10:06:00,
2013-08-13 06:11:00,68.4,61.2,30.03,South,170,8.1,8.1,78,0.00,OVC,,0.00,WeatherDisplay:10.37,2013-08-13 10:11:00,
2013-08-13 06:16:00,68.4,61.2,30.03,South,170,8.1,8.1,78,0.00,OVC,,0.00,WeatherDisplay:10.37,2013-08-13 10:16:00,
2013-08-13 06:21:00,68.4,61.2,30.06,South,170,8.1,8.1,78,0.00,OVC,,0.00,WeatherDisplay:10.37,2013-08-13 10:21:00,
2013-08-13 06:26:00,68.4,61.2,30.06,South,170,8.1,8.1,78,0.00,OVC,,0.00,WeatherDisplay:10.37,2013-08-13 10:26:00,
2013-08-13 06:31:00,68.4,61.2,30.06,South,170,8.1,8.1,78,0.00,OVC,,0.00,WeatherDisplay:10.37,2013-08-13 10:31:00,
2013-08-13 06:36:00,68.4,61.2,30.00,South,170,8.1,8.1,78,0.00,OVC,,0.00,WeatherDisplay:10.37,2013-08-13 10:36:00,
2013-08-13 06:41:00,68.2,61.1,30.00,South,170,8.1,8.1,78,0.00,OVC,,0.00,WeatherDisplay:10.37,2013-08-13 10:41:00,
2013-08-13 06:46:00,68.2,61.1,30.00,South,170,8.1,8.1,78,0.00,OVC,,0.00,WeatherDisplay:10.37,2013-08-13 10:46:00,
2013-08-13 06:51:00,68.0,60.9,30.03,South,170,8.1,8.1,78,0.00,OVC,,0.00,WeatherDisplay:10.37,2013-08-13 10:51:00,
2013-08-13 06:56:00,67.8,60.7,30.03,South,170,8.1,8.1,78,0.00,OVC,,0.00,WeatherDisplay:10.37,2013-08-13 10:56:00,
2013-08-13 07:01:00,68.0,64.0,30.03,WNW,300,4.6,8.1,87,0.00,-RA,,0.00,WeatherDisplay:10.37,2013-08-13 11:01:00,
2013-08-13 07:06:00,67.8,63.8,30.03,WNW,300,4.6,4.6,87,0.00,-RA,,0.00,WeatherDisplay:10.37,2013-08-13 11:06:00,
2013-08-13 07:11:00,67.8,63.8,30.03,WNW,300,4.6,4.6,87,0.00,-RA,,0.00,WeatherDisplay:10.37,2013-08-13 11:11:00,
2013-08-13 07:16:00,67.8,63.8,30.03,WNW,300,4.6,4.6,87,0.00,-RA,,0.00,WeatherDisplay:10.37,2013-08-13 11:16:00,
2013-08-13 07:21:00,67.8,63.8,30.03,WNW,300,4.6,4.6,87,0.00,-RA,,0.00,WeatherDisplay:10.37,2013-08-13 11:21:00,
2013-08-13 07:26:00,67.8,63.8,30.03,WNW,300,4.6,4.6,87,0.00,-RA,,0.00,WeatherDisplay:10.37,2013-08-13 11:26:00,
2013-08-13 07:31:00,67.8,63.8,30.03,WNW,300,4.6,4.6,87,0.00,-RA,,0.00,WeatherDisplay:10.37,2013-08-13 11:31:00,
2013-08-13 07:36:00,67.8,63.8,30.03,WNW,300,4.6,4.6,87,0.00,-RA,,0.00,WeatherDisplay:10.37,2013-08-13 11:36:00,
2013-08-13 07:41:00,67.6,63.6,30.03,WNW,300,4.6,4.6,87,0.00,-RA,,0.00,WeatherDisplay:10.37,2013-08-13 11:41:00,
2013-08-13 07:46:00,67.6,63.6,30.03,WNW,300,4.6,4.6,87,0.00,-RA,,0.00,WeatherDisplay:10.37,2013-08-13 11:46:00,
2013-08-13 07:51:00,67.6,63.6,30.03,WNW,300,4.6,4.6,87,0.00,-RA,,0.00,WeatherDisplay:10.37,2013-08-13 11:51:00,
2013-08-13 07:56:00,67.3,63.3,30.03,WNW,300,4.6,4.6,87,0.00,-RA,,0.00,WeatherDisplay:10.37,2013-08-13 11:56:00,
2013-08-13 08:01:00,67.1,65.0,30.03,North,350,8.1,8.1,93,0.04,RA,,0.04,WeatherDisplay:10.37,2013-08-13 12:01:00,
2013-08-13 08:06:00,66.6,64.5,30.03,North,350,8.1,8.1,93,0.04,RA,,0.04,WeatherDisplay:10.37,2013-08-13 12:06:00,
2013-08-13 08:11:00,66.2,64.1,30.03,North,350,8.1,8.1,93,0.08,RA,,0.08,WeatherDisplay:10.37,2013-08-13 12:11:00,
2013-08-13 08:16:00,66.0,63.9,30.03,NW,320,10.4,10.4,93,0.12, +RA,,0.12,WeatherDisplay:10.37,2013-08-13 12:16:00,
2013-08-13 08:21:00,65.8,63.8,30.03,NW,320,10.4,10.4,93,0.12, +RA,,0.12,WeatherDisplay:10.37,2013-08-13 12:21:00,
2013-08-13 08:26:00,65.8,63.8,30.03,NW,320,10.4,10.4,93,0.16, +RA,,0.16,WeatherDisplay:10.37,2013-08-13 12:26:00,
2013-08-13 08:31:00,65.7,63.6,30.03,NW,320,10.4,10.4,93,0.16, +RA,,0.16,WeatherDisplay:10.37,2013-08-13 12:31:00,
2013-08-13 08:36:00,65.5,63.4,30.00,NW,320,10.4,10.4,93,0.16, +RA,,0.16,WeatherDisplay:10.37,2013-08-13 12:36:00,
2013-08-13 08:41:00,65.5,63.4,30.00,NW,320,10.4,10.4,93,0.20, +RA,,0.20,WeatherDisplay:10.37,2013-08-13 12:41:00,
2013-08-13 08:46:00,65.5,63.4,30.00,NW,320,10.4,10.4,93,0.24, +RA,,0.24,WeatherDisplay:10.37,2013-08-13 12:46:00,
2013-08-13 08:51:00,65.5,63.4,30.03,NW,320,10.4,10.4,93,0.28, +RA,,0.28,WeatherDisplay:10.37,2013-08-13 12:51:00,
2013-08-13 08:56:00,65.5,63.4,30.03,NW,320,10.4,10.4,93,0.28, +RA,,0.28,WeatherDisplay:10.37,2013-08-13 12:56:00,
2013-08-13 09:01:00,65.3,63.2,30.03,North,350,5.8,10.4,93,0.28,RA,,0.31,WeatherDisplay:10.37,2013-08-13 13:01:00,
2013-08-13 09:06:00,65.5,63.4,30.03,North,350,5.8,5.8,93,0.28,RA,,0.31,WeatherDisplay:10.37,2013-08-13 13:06:00,
2013-08-13 09:11:00,65.5,63.4,30.03,North,350,5.8,5.8,93,0.24,SCT,,0.31,WeatherDisplay:10.37,2013-08-13 13:11:00,
2013-08-13 09:16:00,65.5,63.4,30.03,NNW,340,3.5,5.8,93,0.24, +RA,,0.35,WeatherDisplay:10.37,2013-08-13 13:16:00,
2013-08-13 09:21:00,65.5,63.4,30.06,NNW,340,3.5,3.5,93,0.28, +RA,,0.39,WeatherDisplay:10.37,2013-08-13 13:21:00,
2013-08-13 09:26:00,65.3,63.2,30.06,NNW,340,3.5,3.5,93,0.24, +RA,,0.39,WeatherDisplay:10.37,2013-08-13 13:26:00,
2013-08-13 09:31:00,65.5,63.4,30.06,NNW,340,0.0,3.5,93,0.24,OVC,,0.39,WeatherDisplay:10.37,2013-08-13 13:31:00,
2013-08-13 09:36:00,65.7,63.6,30.00,NNW,340,0.0,0.0,93,0.24,OVC,,0.39,WeatherDisplay:10.37,2013-08-13 13:36:00,
2013-08-13 09:41:00,65.7,63.6,30.00,NNW,340,0.0,0.0,93,0.28,RA,,0.47,WeatherDisplay:10.37,2013-08-13 13:41:00,
2013-08-13 09:46:00,65.7,63.6,30.00,NNW,340,0.0,0.0,93,0.24,RA,,0.47,WeatherDisplay:10.37,2013-08-13 13:46:00,
2013-08-13 09:51:00,65.5,63.4,30.06,NNW,340,0.0,0.0,93,0.24,RA,,0.51,WeatherDisplay:10.37,2013-08-13 13:51:00,
2013-08-13 09:56:00,65.7,63.6,30.06,NNW,340,0.0,0.0,93,0.24,RA,,0.51,WeatherDisplay:10.37,2013-08-13 13:56:00,
2013-08-13 10:01:00,65.5,63.4,30.06,SE,140,3.5,3.5,93,0.24,RA,,0.55,WeatherDisplay:10.37,2013-08-13 14:01:00,
2013-08-13 10:06:00,65.5,63.4,30.03,SE,140,3.5,3.5,93,0.24,RA,,0.55,WeatherDisplay:10.37,2013-08-13 14:06:00,
2013-08-13 10:11:00,65.5,63.4,30.03,SE,140,3.5,3.5,93,0.24,SCT,,0.55,WeatherDisplay:10.37,2013-08-13 14:11:00,
2013-08-13 10:16:00,65.5,63.4,30.03,SE,140,3.5,3.5,93,0.20,SCT,,0.55,WeatherDisplay:10.37,2013-08-13 14:16:00,
2013-08-13 10:21:00,65.5,63.4,30.06,SE,140,3.5,3.5,93,0.16,SCT,,0.55,WeatherDisplay:10.37,2013-08-13 14:21:00,
2013-08-13 10:26:00,65.7,63.6,30.06,SE,140,3.5,3.5,93,0.16,SCT,,0.55,WeatherDisplay:10.37,2013-08-13 14:26:00,
2013-08-13 10:31:00,65.7,63.6,30.06,SE,140,0.0,3.5,93,0.16,-RA,,0.55,WeatherDisplay:10.37,2013-08-13 14:31:00,
2013-08-13 10:36:00,65.7,63.6,30.03,SE,140,0.0,0.0,93,0.16,-RA,,0.55,WeatherDisplay:10.37,2013-08-13 14:36:00,
2013-08-13 10:41:00,65.7,63.6,30.03,SE,140,0.0,0.0,93,0.08,-RA,,0.55,WeatherDisplay:10.37,2013-08-13 14:41:00,
2013-08-13 10:46:00,65.8,63.8,30.03,SE,140,0.0,0.0,93,0.08,-RA,,0.55,WeatherDisplay:10.37,2013-08-13 14:46:00,
2013-08-13 10:51:00,65.8,63.8,30.03,SE,140,0.0,0.0,93,0.04,-RA,,0.55,WeatherDisplay:10.37,2013-08-13 14:51:00,
2013-08-13 10:56:00,65.8,63.8,30.03,SE,140,0.0,0.0,93,0.04,-RA,,0.55,WeatherDisplay:10.37,2013-08-13 14:56:00,
2013-08-13 11:01:00,65.8,63.8,30.03,ESE,120,4.6,4.6,93,0.00,-RA,,0.55,WeatherDisplay:10.37,2013-08-13 15:01:00,
2013-08-13 11:06:00,66.0,63.9,30.00,ESE,120,4.6,4.6,93,0.00,-RA,,0.55,WeatherDisplay:10.37,2013-08-13 15:06:00,
2013-08-13 11:11:00,66.0,63.9,30.00,ESE,120,4.6,4.6,93,0.00,-RA,,0.55,WeatherDisplay:10.37,2013-08-13 15:11:00,
2013-08-13 11:16:00,66.0,63.9,30.00,ESE,120,4.6,4.6,93,0.00,-RA,,0.55,WeatherDisplay:10.37,2013-08-13 15:16:00,
2013-08-13 11:21:00,66.2,64.1,30.06,ESE,120,4.6,4.6,93,0.04,-RA,,0.59,WeatherDisplay:10.37,2013-08-13 15:21:00,
2013-08-13 11:26:00,66.2,64.1,30.06,ESE,120,4.6,4.6,93,0.04,-RA,,0.59,WeatherDisplay:10.37,2013-08-13 15:26:00,
2013-08-13 11:31:00,66.2,62.5,30.06,ESE,120,0.0,4.6,88,0.04,-RA,,0.59,WeatherDisplay:10.37,2013-08-13 15:31:00,
2013-08-13 11:36:00,66.6,62.9,30.00,ESE,120,0.0,0.0,88,0.04,-RA,,0.59,WeatherDisplay:10.37,2013-08-13 15:36:00,
2013-08-13 11:41:00,66.7,63.1,30.00,ESE,120,0.0,0.0,88,0.04,-RA,,0.59,WeatherDisplay:10.37,2013-08-13 15:41:00,
2013-08-13 11:46:00,66.6,62.9,30.00,ESE,120,0.0,0.0,88,0.04,-RA,,0.59,WeatherDisplay:10.37,2013-08-13 15:46:00,
2013-08-13 11:51:00,66.7,63.1,30.03,ESE,120,0.0,0.0,88,0.04,-RA,,0.59,WeatherDisplay:10.37,2013-08-13 15:51:00,
2013-08-13 11:56:00,66.7,63.1,30.03,ESE,120,0.0,0.0,88,0.04,-RA,,0.59,WeatherDisplay:10.37,2013-08-13 15:56:00,
2013-08-13 12:01:00,66.6,62.6,30.03,ESE,120,0.0,0.0,87,0.04,-RA,,0.59,WeatherDisplay:10.37,2013-08-13 16:01:00,
2013-08-13 12:06:00,66.6,62.6,30.00,ESE,120,0.0,0.0,87,0.04,-RA,,0.59,WeatherDisplay:10.37,2013-08-13 16:06:00,
2013-08-13 12:11:00,66.7,62.7,30.00,ESE,120,0.0,0.0,87,0.04,-RA,,0.59,WeatherDisplay:10.37,2013-08-13 16:11:00,
2013-08-13 12:16:00,66.6,62.6,30.00,ESE,120,0.0,0.0,87,0.04,-RA,,0.59,WeatherDisplay:10.37,2013-08-13 16:16:00,
2013-08-13 12:21:00,66.7,62.7,29.98,ESE,120,0.0,0.0,87,0.00,-RA,,0.59,WeatherDisplay:10.37,2013-08-13 16:21:00,
2013-08-13 12:26:00,66.6,62.6,29.98,ESE,120,0.0,0.0,87,0.00,-RA,,0.59,WeatherDisplay:10.37,2013-08-13 16:26:00,
2013-08-13 12:31:00,66.7,62.7,29.98,ESE,120,0.0,0.0,87,0.00,-RA,,0.59,WeatherDisplay:10.37,2013-08-13 16:31:00,
2013-08-13 12:36:00,66.7,62.7,29.92,ESE,120,0.0,0.0,87,0.00,-RA,,0.59,WeatherDisplay:10.37,2013-08-13 16:36:00,
2013-08-13 12:41:00,66.7,62.7,29.92,ESE,120,0.0,0.0,87,0.00,-RA,,0.59,WeatherDisplay:10.37,2013-08-13 16:41:00,
2013-08-13 12:47:00,66.6,60.9,29.92,ESE,120,0.0,0.0,82,0.00,SCT,,0.59,WeatherDisplay:10.37,2013-08-13 16:47:00,
2013-08-13 12:52:00,66.7,61.1,30.59,ESE,120,0.0,0.0,82,0.00,SCT,,0.59,WeatherDisplay:10.37,2013-08-13 16:52:00,
2013-08-13 12:57:00,66.7,61.1,30.59,ESE,120,0.0,0.0,82,0.00,SCT,,0.59,WeatherDisplay:10.37,2013-08-13 16:57:00,
2013-08-13 13:02:00,66.7,61.4,30.59,ESE,120,0.0,0.0,83,0.00,OVC,,0.59,WeatherDisplay:10.37,2013-08-13 17:02:00,
2013-08-13 13:07:00,66.7,61.4,29.92,ESE,120,0.0,0.0,83,0.00,OVC,,0.59,WeatherDisplay:10.37,2013-08-13 17:07:00,
2013-08-13 13:12:00,66.9,61.6,29.92,ESE,120,0.0,0.0,83,0.00,OVC,,0.59,WeatherDisplay:10.37,2013-08-13 17:12:00,
2013-08-13 13:17:00,67.1,61.8,29.92,ESE,120,0.0,0.0,83,0.00,OVC,,0.59,WeatherDisplay:10.37,2013-08-13 17:17:00,
2013-08-13 13:22:00,67.1,61.8,29.92,ESE,120,0.0,0.0,83,0.00,OVC,,0.59,WeatherDisplay:10.37,2013-08-13 17:22:00,
2013-08-13 13:27:00,67.1,61.8,29.92,ESE,120,0.0,0.0,83,0.00,OVC,,0.59,WeatherDisplay:10.37,2013-08-13 17:27:00,
2013-08-13 13:32:00,67.1,61.4,29.92,SSW,200,3.5,3.5,82,0.00,OVC,,0.59,WeatherDisplay:10.37,2013-08-13 17:32:00,
2013-08-13 13:37:00,67.3,61.6,29.92,SSW,200,3.5,3.5,82,0.00,OVC,,0.59,WeatherDisplay:10.37,2013-08-13 17:37:00,
2013-08-13 13:42:00,67.5,61.8,29.92,SSW,200,3.5,3.5,82,0.00,OVC,,0.59,WeatherDisplay:10.37,2013-08-13 17:42:00,
2013-08-13 13:47:00,67.5,61.8,29.92,SSW,200,3.5,3.5,82,0.00,OVC,,0.59,WeatherDisplay:10.37,2013-08-13 17:47:00,
2013-08-13 13:52:00,67.3,61.6,29.89,SSW,200,3.5,3.5,82,0.00,OVC,,0.59,WeatherDisplay:10.37,2013-08-13 17:52:00,
2013-08-13 13:57:00,67.5,61.8,29.89,SSW,200,3.5,3.5,82,0.00,OVC,,0.59,WeatherDisplay:10.37,2013-08-13 17:57:00,
2013-08-13 14:02:00,67.6,61.6,29.89,South,180,3.5,3.5,81,0.00,OVC,,0.59,WeatherDisplay:10.37,2013-08-13 18:02:00,
2013-08-13 14:07:00,67.8,61.8,29.86,South,180,3.5,3.5,81,0.00,OVC,,0.59,WeatherDisplay:10.37,2013-08-13 18:07:00,
2013-08-13 14:12:00,67.8,61.8,29.86,South,180,3.5,3.5,81,0.00,OVC,,0.59,WeatherDisplay:10.37,2013-08-13 18:12:00,
2013-08-13 14:17:00,67.8,61.8,29.86,South,180,3.5,3.5,81,0.00,OVC,,0.59,WeatherDisplay:10.37,2013-08-13 18:17:00,
2013-08-13 14:22:00,68.0,61.9,29.86,South,180,3.5,3.5,81,0.00,OVC,,0.59,WeatherDisplay:10.37,2013-08-13 18:22:00,
2013-08-13 14:27:00,68.2,62.1,29.86,South,180,3.5,3.5,81,0.00,OVC,,0.59,WeatherDisplay:10.37,2013-08-13 18:27:00,
2013-08-13 14:32:00,68.2,62.1,29.86,South,180,3.5,3.5,81,0.00,OVC,,0.59,WeatherDisplay:10.37,2013-08-13 18:32:00,
2013-08-13 14:37:00,68.4,62.3,29.86,South,180,3.5,3.5,81,0.00,OVC,,0.59,WeatherDisplay:10.37,2013-08-13 18:37:00,
2013-08-13 14:42:00,68.5,62.5,29.86,South,180,3.5,3.5,81,0.00,OVC,,0.59,WeatherDisplay:10.37,2013-08-13 18:42:00,
2013-08-13 14:47:00,68.5,62.5,29.86,South,180,3.5,3.5,81,0.00,OVC,,0.59,WeatherDisplay:10.37,2013-08-13 18:47:00,
2013-08-13 14:52:00,68.7,62.7,30.06,South,180,3.5,3.5,81,0.00,OVC,,0.59,WeatherDisplay:10.37,2013-08-13 18:52:00,
2013-08-13 14:57:00,69.1,63.0,30.06,South,180,3.5,3.5,81,0.00,OVC,,0.59,WeatherDisplay:10.37,2013-08-13 18:57:00,
2013-08-13 15:02:00,69.3,62.1,30.06,SE,130,3.5,3.5,78,0.00,OVC,,0.59,WeatherDisplay:10.37,2013-08-13 19:02:00,
2013-08-13 15:07:00,69.4,62.3,29.92,SE,130,3.5,3.5,78,0.00,OVC,,0.59,WeatherDisplay:10.37,2013-08-13 19:07:00,
2013-08-13 15:12:00,69.4,62.3,29.92,SE,130,3.5,3.5,78,0.00,OVC,,0.59,WeatherDisplay:10.37,2013-08-13 19:12:00,
2013-08-13 15:17:00,69.4,62.3,29.92,SE,130,3.5,3.5,78,0.00,OVC,,0.59,WeatherDisplay:10.37,2013-08-13 19:17:00,
2013-08-13 15:22:00,69.4,62.3,29.89,SE,130,3.5,3.5,78,0.00,OVC,,0.59,WeatherDisplay:10.37,2013-08-13 19:22:00,
2013-08-13 15:27:00,69.4,62.3,29.89,SE,130,3.5,3.5,78,0.00,OVC,,0.59,WeatherDisplay:10.37,2013-08-13 19:27:00,
2013-08-13 15:32:00,69.6,62.5,29.89,SE,130,3.5,3.5,78,0.00,OVC,,0.59,WeatherDisplay:10.37,2013-08-13 19:32:00,
2013-08-13 15:37:00,70.0,62.8,29.83,SE,130,3.5,3.5,78,0.00,OVC,,0.59,WeatherDisplay:10.37,2013-08-13 19:37:00,
2013-08-13 15:42:00,70.2,63.0,29.83,SE,130,3.5,3.5,78,0.00,OVC,,0.59,WeatherDisplay:10.37,2013-08-13 19:42:00,
2013-08-13 15:47:00,70.3,63.2,29.83,SE,130,3.5,3.5,78,0.00,OVC,,0.59,WeatherDisplay:10.37,2013-08-13 19:47:00,
2013-08-13 15:52:00,70.3,63.2,29.77,SE,130,3.5,3.5,78,0.00,OVC,,0.59,WeatherDisplay:10.37,2013-08-13 19:52:00,
2013-08-13 15:57:00,70.5,63.3,29.77,SE,130,3.5,3.5,78,0.00,OVC,,0.59,WeatherDisplay:10.37,2013-08-13 19:57:00,
2013-08-13 16:03:00,70.5,61.4,29.77,SE,130,4.6,4.6,73,0.00,BKN,,0.59,WeatherDisplay:10.37,2013-08-13 20:03:00,
2013-08-13 16:08:00,70.7,61.6,29.77,SE,130,4.6,4.6,73,0.00,BKN,,0.59,WeatherDisplay:10.37,2013-08-13 20:08:00,
2013-08-13 16:13:00,70.9,61.8,29.77,SE,130,4.6,4.6,73,0.00,BKN,,0.59,WeatherDisplay:10.37,2013-08-13 20:13:00,
2013-08-13 16:18:00,71.1,62.0,29.77,SE,130,4.6,4.6,73,0.00,BKN,,0.59,WeatherDisplay:10.37,2013-08-13 20:18:00,
2013-08-13 16:23:00,71.1,62.0,29.77,SE,130,4.6,4.6,73,0.00,BKN,,0.59,WeatherDisplay:10.37,2013-08-13 20:23:00,
2013-08-13 16:28:00,71.1,62.0,29.77,SE,130,4.6,4.6,73,0.00,BKN,,0.59,WeatherDisplay:10.37,2013-08-13 20:28:00,
2013-08-13 16:33:00,70.9,61.8,29.77,SE,130,4.6,4.6,73,0.00,BKN,,0.59,WeatherDisplay:10.37,2013-08-13 20:33:00,
2013-08-13 16:38:00,71.1,62.0,29.77,SE,130,4.6,4.6,73,0.00,BKN,,0.59,WeatherDisplay:10.37,2013-08-13 20:38:00,
2013-08-13 16:43:00,71.1,62.0,29.77,SE,130,4.6,4.6,73,0.00,BKN,,0.59,WeatherDisplay:10.37,2013-08-13 20:43:00,
2013-08-13 16:48:00,71.1,62.0,29.77,SE,130,4.6,4.6,73,0.00,BKN,,0.59,WeatherDisplay:10.37,2013-08-13 20:48:00,
2013-08-13 16:53:00,71.2,62.1,29.74,SE,130,4.6,4.6,73,0.00,BKN,,0.59,WeatherDisplay:10.37,2013-08-13 20:53:00,
2013-08-13 16:58:00,71.4,62.3,29.74,SE,130,4.6,4.6,73,0.00,BKN,,0.59,WeatherDisplay:10.37,2013-08-13 20:58:00,
2013-08-13 17:03:00,71.4,61.5,29.74,SE,130,4.6,4.6,71,0.00,BKN,,0.59,WeatherDisplay:10.37,2013-08-13 21:03:00,
2013-08-13 17:08:00,71.6,61.7,29.74,SE,130,4.6,4.6,71,0.00,BKN,,0.59,WeatherDisplay:10.37,2013-08-13 21:08:00,
2013-08-13 17:13:00,71.6,61.7,29.74,SE,130,4.6,4.6,71,0.00,BKN,,0.59,WeatherDisplay:10.37,2013-08-13 21:13:00,
2013-08-13 17:18:00,71.8,61.9,29.74,SE,130,4.6,4.6,71,0.00,BKN,,0.59,WeatherDisplay:10.37,2013-08-13 21:18:00,
2013-08-13 17:23:00,71.8,61.9,29.71,SE,130,4.6,4.6,71,0.00,BKN,,0.59,WeatherDisplay:10.37,2013-08-13 21:23:00,
2013-08-13 17:28:00,71.8,61.9,29.71,SE,130,4.6,4.6,71,0.00,BKN,,0.59,WeatherDisplay:10.37,2013-08-13 21:28:00,
2013-08-13 17:33:00,71.8,61.9,29.71,SE,130,4.6,4.6,71,0.00,BKN,,0.59,WeatherDisplay:10.37,2013-08-13 21:33:00,
2013-08-13 17:38:00,71.8,61.9,29.71,SE,130,4.6,4.6,71,0.00,BKN,,0.59,WeatherDisplay:10.37,2013-08-13 21:38:00,
2013-08-13 17:43:00,71.8,61.9,29.71,SE,130,4.6,4.6,71,0.00,BKN,,0.59,WeatherDisplay:10.37,2013-08-13 21:43:00,
2013-08-13 17:48:00,71.8,61.9,29.71,SE,130,4.6,4.6,71,0.00,BKN,,0.59,WeatherDisplay:10.37,2013-08-13 21:48:00,
2013-08-13 17:53:00,71.8,61.9,29.71,SE,130,4.6,4.6,71,0.00,BKN,,0.59,WeatherDisplay:10.37,2013-08-13 21:53:00,
2013-08-13 17:58:00,71.8,61.9,29.71,SE,130,4.6,4.6,71,0.00,BKN,,0.59,WeatherDisplay:10.37,2013-08-13 21:58:00,
2013-08-13 18:03:00,71.8,61.9,29.71,SE,130,4.6,4.6,71,0.00,BKN,,0.59,WeatherDisplay:10.37,2013-08-13 22:03:00,
2013-08-13 18:08:00,71.8,61.9,29.71,SE,130,4.6,4.6,71,0.00,BKN,,0.59,WeatherDisplay:10.37,2013-08-13 22:08:00,
2013-08-13 18:13:00,71.8,61.9,29.71,SE,130,4.6,4.6,71,0.00,BKN,,0.59,WeatherDisplay:10.37,2013-08-13 22:13:00,
2013-08-13 18:18:00,71.8,61.9,29.71,SE,130,5.8,5.8,71,0.00,BKN,,0.59,WeatherDisplay:10.37,2013-08-13 22:18:00,
2013-08-13 18:23:00,71.6,61.7,29.71,SE,130,5.8,5.8,71,0.00,BKN,,0.59,WeatherDisplay:10.37,2013-08-13 22:23:00,
2013-08-13 18:28:00,71.6,61.7,29.71,SE,130,5.8,5.8,71,0.00,BKN,,0.59,WeatherDisplay:10.37,2013-08-13 22:28:00,
2013-08-13 18:33:00,71.4,61.5,29.71,SE,130,5.8,5.8,71,0.00,BKN,,0.59,WeatherDisplay:10.37,2013-08-13 22:33:00,
2013-08-13 18:38:00,71.2,61.4,29.71,SE,130,5.8,5.8,71,0.00,BKN,,0.59,WeatherDisplay:10.37,2013-08-13 22:38:00,
2013-08-13 18:43:00,71.1,61.2,29.71,SE,130,5.8,5.8,71,0.00,BKN,,0.59,WeatherDisplay:10.37,2013-08-13 22:43:00,
2013-08-13 18:48:00,70.9,61.0,29.71,SE,130,5.8,5.8,71,0.00,BKN,,0.59,WeatherDisplay:10.37,2013-08-13 22:48:00,
2013-08-13 18:53:00,70.5,60.7,29.65,SE,130,5.8,5.8,71,0.08,RA,,0.67,WeatherDisplay:10.37,2013-08-13 22:53:00,
2013-08-13 18:58:00,70.2,60.3,29.65,SE,130,5.8,5.8,71,0.12,RA,,0.79,WeatherDisplay:10.37,2013-08-13 22:58:00,
2013-08-13 19:03:00,70.0,64.6,29.65,South,170,3.5,3.5,83,0.20,RA,,0.79,WeatherDisplay:10.37,2013-08-13 23:03:00,
2013-08-13 19:08:00,69.6,64.2,29.68,South,170,3.5,3.5,83,0.20,RA,,0.79,WeatherDisplay:10.37,2013-08-13 23:08:00,
2013-08-13 19:13:00,69.4,64.0,29.68,South,170,3.5,3.5,83,0.20,OVC,,0.79,WeatherDisplay:10.37,2013-08-13 23:13:00,
2013-08-13 19:18:00,69.1,63.7,29.68,South,170,3.5,3.5,83,0.20,OVC,,0.79,WeatherDisplay:10.37,2013-08-13 23:18:00,
2013-08-13 19:23:00,68.9,63.5,29.68,South,170,3.5,3.5,83,0.20,OVC,,0.79,WeatherDisplay:10.37,2013-08-13 23:23:00,
2013-08-13 19:28:00,68.5,63.2,29.68,South,170,3.5,3.5,83,0.20,OVC,,0.79,WeatherDisplay:10.37,2013-08-13 23:28:00,
2013-08-13 19:33:00,68.2,62.8,29.68,South,170,3.5,3.5,83,0.20,OVC,,0.79,WeatherDisplay:10.37,2013-08-13 23:33:00,
2013-08-13 19:38:00,68.0,62.6,29.68,South,170,3.5,3.5,83,0.20,OVC,,0.79,WeatherDisplay:10.37,2013-08-13 23:38:00,
2013-08-13 19:43:00,68.0,62.6,29.68,South,170,3.5,3.5,83,0.20,OVC,,0.79,WeatherDisplay:10.37,2013-08-13 23:43:00,
2013-08-13 19:48:00,67.8,65.7,29.68,North,360,4.6,4.6,93,0.20,BKN,,0.79,WeatherDisplay:10.37,2013-08-13 23:48:00,
2013-08-13 19:53:00,67.8,65.7,29.68,North,360,4.6,4.6,93,0.12,BKN,,0.79,WeatherDisplay:10.37,2013-08-13 23:53:00,
2013-08-13 19:58:00,67.8,65.7,29.68,North,360,4.6,4.6,93,0.08,BKN,,0.79,WeatherDisplay:10.37,2013-08-13 23:58:00,
2013-08-13 20:03:00,67.8,64.8,29.68,NW,320,4.6,4.6,90,0.00,BKN,,0.79,WeatherDisplay:10.37,2013-08-14 00:03:00,
2013-08-13 20:08:00,67.8,64.8,29.68,NW,320,4.6,4.6,90,0.00,BKN,,0.79,WeatherDisplay:10.37,2013-08-14 00:08:00,
2013-08-13 20:13:00,67.8,64.8,29.68,NW,320,4.6,4.6,90,0.00,BKN,,0.79,WeatherDisplay:10.37,2013-08-14 00:13:00,
2013-08-13 20:18:00,67.6,64.6,29.68,NW,320,4.6,4.6,90,0.00,BKN,,0.79,WeatherDisplay:10.37,2013-08-14 00:18:00,
2013-08-13 20:23:00,67.6,64.6,29.71,NW,320,4.6,4.6,90,0.00,BKN,,0.79,WeatherDisplay:10.37,2013-08-14 00:23:00,
2013-08-13 20:28:00,67.6,64.6,29.71,NW,320,4.6,4.6,90,0.00,BKN,,0.79,WeatherDisplay:10.37,2013-08-14 00:28:00,
2013-08-13 20:33:00,67.6,64.6,29.71,NW,320,4.6,4.6,90,0.00,BKN,,0.79,WeatherDisplay:10.37,2013-08-14 00:33:00,
2013-08-13 20:38:00,67.6,64.6,29.71,NW,320,4.6,4.6,90,0.00,BKN,,0.79,WeatherDisplay:10.37,2013-08-14 00:38:00,
2013-08-13 20:43:00,67.6,64.6,29.71,NW,320,4.6,4.6,90,0.00,BKN,,0.79,WeatherDisplay:10.37,2013-08-14 00:43:00,
2013-08-13 20:48:00,67.6,64.6,29.71,NW,320,4.6,4.6,90,0.00,BKN,,0.79,WeatherDisplay:10.37,2013-08-14 00:48:00,
2013-08-13 20:53:00,67.6,64.6,29.71,NW,320,4.6,4.6,90,0.00,BKN,,0.79,WeatherDisplay:10.37,2013-08-14 00:53:00,
2013-08-13 20:58:00,67.6,64.6,29.71,NW,320,4.6,4.6,90,0.00,BKN,,0.79,WeatherDisplay:10.37,2013-08-14 00:58:00,
2013-08-13 21:03:00,67.6,65.5,29.71,WNW,290,3.5,3.5,93,0.00,BKN,,0.79,WeatherDisplay:10.37,2013-08-14 01:03:00,
2013-08-13 21:08:00,67.6,65.5,29.71,WNW,290,3.5,3.5,93,0.00,BKN,,0.79,WeatherDisplay:10.37,2013-08-14 01:08:00,
2013-08-13 21:13:00,67.6,65.5,29.71,WNW,290,3.5,3.5,93,0.00,BKN,,0.79,WeatherDisplay:10.37,2013-08-14 01:13:00,
2013-08-13 21:18:00,67.6,65.5,29.71,WNW,290,3.5,3.5,93,0.00,BKN,,0.79,WeatherDisplay:10.37,2013-08-14 01:18:00,
2013-08-13 21:23:00,67.6,65.5,29.71,WNW,290,3.5,3.5,93,0.00,BKN,,0.79,WeatherDisplay:10.37,2013-08-14 01:23:00,
2013-08-13 21:28:00,67.6,65.5,29.71,WNW,290,3.5,3.5,93,0.00,BKN,,0.79,WeatherDisplay:10.37,2013-08-14 01:28:00,
2013-08-13 21:33:00,67.5,65.4,29.74,WNW,290,3.5,3.5,93,0.00,BKN,,0.79,WeatherDisplay:10.37,2013-08-14 01:33:00,
2013-08-13 21:38:00,67.5,65.4,29.74,WNW,290,3.5,3.5,93,0.00,BKN,,0.79,WeatherDisplay:10.37,2013-08-14 01:38:00,
2013-08-13 21:43:00,67.3,65.2,29.74,WNW,290,3.5,3.5,93,0.00,BKN,,0.79,WeatherDisplay:10.37,2013-08-14 01:43:00,
2013-08-13 21:48:00,66.9,64.8,29.74,WNW,290,3.5,3.5,93,0.00,BKN,,0.79,WeatherDisplay:10.37,2013-08-14 01:48:00,
2013-08-13 21:53:00,66.6,64.5,29.74,WNW,290,3.5,3.5,93,0.00,BKN,,0.79,WeatherDisplay:10.37,2013-08-14 01:53:00,
2013-08-13 21:58:00,66.4,64.3,29.74,WNW,290,3.5,3.5,93,0.00,BKN,,0.79,WeatherDisplay:10.37,2013-08-14 01:58:00,
2013-08-13 22:03:00,66.2,60.2,29.74,WNW,300,10.4,20.7,81,0.00,OVC,,0.79,WeatherDisplay:10.37,2013-08-14 02:03:00,
2013-08-13 22:08:00,66.0,60.0,29.74,WNW,300,10.4,20.7,81,0.00,OVC,,0.79,WeatherDisplay:10.37,2013-08-14 02:08:00,
2013-08-13 22:13:00,66.0,60.0,29.74,WNW,300,10.4,20.7,81,0.00,OVC,,0.79,WeatherDisplay:10.37,2013-08-14 02:13:00,
2013-08-13 22:18:00,65.8,59.8,29.77,WNW,300,10.4,20.7,81,0.00,OVC,,0.79,WeatherDisplay:10.37,2013-08-14 02:18:00,
2013-08-13 22:23:00,65.7,59.7,29.77,WNW,300,10.4,20.7,81,0.00,OVC,,0.79,WeatherDisplay:10.37,2013-08-14 02:23:00,
2013-08-13 22:28:00,65.7,59.7,29.77,WNW,300,10.4,20.7,81,0.00,OVC,,0.79,WeatherDisplay:10.37,2013-08-14 02:28:00,
2013-08-13 22:34:00,65.5,59.5,29.77,WNW,300,10.4,20.7,81,0.00,OVC,,0.79,WeatherDisplay:10.37,2013-08-14 02:34:00,
2013-08-13 22:39:00,65.1,59.1,29.77,WNW,300,10.4,20.7,81,0.00,OVC,,0.79,WeatherDisplay:10.37,2013-08-14 02:39:00,
2013-08-13 22:44:00,65.1,59.1,29.77,WNW,300,10.4,20.7,81,0.00,OVC,,0.79,WeatherDisplay:10.37,2013-08-14 02:44:00,
2013-08-13 22:49:00,64.9,59.0,29.77,WNW,300,10.4,20.7,81,0.00,OVC,,0.79,WeatherDisplay:10.37,2013-08-14 02:49:00,
2013-08-13 22:54:00,64.8,58.8,29.77,WNW,300,10.4,20.7,81,0.00,OVC,,0.79,WeatherDisplay:10.37,2013-08-14 02:54:00,
2013-08-13 22:59:00,64.6,58.6,29.77,WNW,300,10.4,20.7,81,0.00,OVC,,0.79,WeatherDisplay:10.37,2013-08-14 02:59:00,
2013-08-13 23:04:00,64.4,58.4,29.77,West,280,10.4,10.4,81,0.00,BKN,,0.79,WeatherDisplay:10.37,2013-08-14 03:04:00,
2013-08-13 23:09:00,64.2,58.3,29.77,West,280,10.4,10.4,81,0.00,BKN,,0.79,WeatherDisplay:10.37,2013-08-14 03:09:00,
2013-08-13 23:14:00,63.9,57.9,29.77,West,280,10.4,10.4,81,0.00,BKN,,0.79,WeatherDisplay:10.37,2013-08-14 03:14:00,
2013-08-13 23:19:00,63.9,57.9,29.77,West,280,10.4,10.4,81,0.00,BKN,,0.79,WeatherDisplay:10.37,2013-08-14 03:19:00,
2013-08-13 23:24:00,63.7,57.7,29.77,West,280,10.4,10.4,81,0.00,BKN,,0.79,WeatherDisplay:10.37,2013-08-14 03:24:00,
2013-08-13 23:29:00,63.5,57.6,29.77,West,280,10.4,10.4,81,0.00,BKN,,0.79,WeatherDisplay:10.37,2013-08-14 03:29:00,
2013-08-13 23:34:00,63.5,57.6,29.80,West,280,10.4,10.4,81,0.00,BKN,,0.79,WeatherDisplay:10.37,2013-08-14 03:34:00,
2013-08-13 23:39:00,63.3,57.4,29.80,West,280,10.4,10.4,81,0.00,BKN,,0.79,WeatherDisplay:10.37,2013-08-14 03:39:00,
2013-08-13 23:44:00,63.3,57.4,29.80,West,280,10.4,10.4,81,0.00,BKN,,0.79,WeatherDisplay:10.37,2013-08-14 03:44:00,
2013-08-13 23:49:00,63.1,57.2,29.80,West,280,10.4,10.4,81,0.00,BKN,,0.79,WeatherDisplay:10.37,2013-08-14 03:49:00,
2013-08-13 23:54:00,63.1,57.2,29.80,West,280,10.4,10.4,81,0.00,BKN,,0.79,WeatherDisplay:10.37,2013-08-14 03:54:00,
2013-08-13 23:59:00,63.0,57.0,29.80,West,280,10.4,10.4,81,0.00,BKN,,0.79,WeatherDisplay:10.37,2013-08-14 03:59:00,